Location: Allaines
(49.9632°N, 2.9458°E)
Time: 03:33:48
(UTC+00:00)

X-37B - Pass Details

Date: 25 June 2021
Orbit: 383 x 392 km, 45.0° (Epoch: 01 July)

Event Time Altitude Azimuth Distance (km) Brightness Sun altitude
Rises 21:45:03 0° 247° (WSW) 2,254 4.5 -11.5°
Reaches altitude 10° 21:47:15 10° 236° (WSW) 1,401 3.4 -11.7°
Maximum altitude 21:50:04 31° 173° (S) 706 1.4 -11.9°
Enters shadow 21:51:45 18° 122° (ESE) 1,009 2.2 -12.0°
